Location: Newark
(48.3453°N, 0.5589°E)
Time: 05:22:12
(UTC+00:00)

A-11 Canister half - Pass Details

Date: 12 December 2019
Orbit: 1517 x 1683 km, 47.2° (Epoch: 23 January)

Event Time Altitude Azimuth Distance (km) Brightness Sun altitude
Rises 19:37:24 0° 287° (WNW) 4,907 12.6 -34.4°
Reaches altitude 10° 19:42:28 10° 266° (W) 3,934 11.9 -35.3°
Maximum altitude 19:47:21 15° 236° (SW) 3,564 11.4 -36.1°
Drops below altitude 10° 19:52:15 10° 206° (SSW) 3,938 11.3 -36.9°
Sets 19:57:23 0° 185° (S) 4,915 11.6 -37.8°
